記事タイトル:Comet P/2004 R3 (LINEAR-NEAT) 

最新の情報は「更新」や「再読み込み」ボタンを押してリロードしてご覧ください。

書き込み欄へ  ヘルプ
お名前: 佐藤 裕久   
NEATプロジェクト(ジェット推進研究所)は、9月13日にM. Brown(カリフォルニア工科
大学)と共同で彗星状天体を観測した。 1.2-m Schmidt鏡の観測は約5″のコマと2″の
集光が見られたがハッキリとした尾は見えなかった。
小惑星センターでは、その天体がLINEARで発見され、NEOCPに掲載された小惑星状天体
AP68251と同一天体であることがわかった。その後、CCD観測者によって確認された。

発見位置は次のとおり、

     2004 UT             R.A. (2000) Decl.       Mag.   Observer
     Sept.10.29965    0 37 23.60   +14 18 11.9   20.1   LINEAR
          13.26186    0 35 27.70   +14 21 11.6   19.1   NEAT

軌道要素と位置推算表は次のとおり、

Orbital elements:
    P/2004 R3 (LINEAR-NEAT)
T 2004 May 23.353 TT                                    MPC
q   2.14061              (2000.0)            P               Q
n   0.129404       Peri.    4.714       +0.805213       +0.585900
a   3.87113        Node   318.967       -0.548504       +0.677341
e   0.44703        Incl.    8.003       -0.225334       +0.444894
P   7.62
From 31 observations 2004 Sept. 10-16.

Ephemeris:
    P/2004 R3 (LINEAR-NEAT)
Date    TT    R. A. (2000) Decl.     Delta      r     Elong.  Phase   m1
2004 09 12    00 36.30   +14 20.2    1.362    2.309   153.8    11.1  18.8
2004 09 22    00 29.08   +14 19.6    1.358    2.338   163.4     7.0  18.9
2004 10 02    00 21.32   +14 01.5    1.378    2.369   169.2     4.6  18.9
2004 10 12    00 14.18   +13 31.4    1.423    2.401   165.0     6.2  19.1
2004 10 22    00 08.65   +12 56.8    1.493    2.435   155.8     9.6  19.2

(CBET 83、MPEC 2004-S02) 
[2004年9月17日 22時38分27秒]

この記事への返信をどうぞ。 自動改行されませんので、適当に改行を入れてください。
氏名
E-mail URL



記事一覧に戻る